When you browse on this site, cookies collect data to enhance your experience and personalize the content and advertising you see.
Visit our Privacy Policy to learn more. By continuing to use the site, you agree to this use of cookies and data.
  • In Romania
  • List of Countries
  • For 7 days
  • Water Temperature
  • Weather Map
  • Weather Widgets
  • user-avatar
    Login

    Hourly Weather Mizino-Lapshinovka

    Today, 26 August, Monday

    Time Temperature Precipitation Wind Pressure Humidity
    00:00 +13°C° 0 mm 4 mps 758 mmHg 78%
    01:00 +13°C° 0 mm 4 mps 759 mmHg 82%
    02:00 +12°C° 0 mm 4 mps 759 mmHg 85%
    03:00 +12°C° 0 mm 4 mps 760 mmHg 87%
    04:00 +12°C° 0 mm 3 mps 760 mmHg 89%
    05:00 +12°C° 0 mm 3 mps 760 mmHg 90%
    06:00 +12°C° 0 mm 3 mps 760 mmHg 91%
    07:00 +13°C° 0 mm 3 mps 760 mmHg 81%
    08:00 +16°C° 0 mm 3 mps 761 mmHg 72%
    09:00 +18°C° 0 mm 3 mps 761 mmHg 62%
    10:00 +19°C° 0 mm 3 mps 761 mmHg 57%
    11:00 +21°C° 0 mm 3 mps 761 mmHg 52%
    12:00 +22°C° 0 mm 3 mps 761 mmHg 46%
    13:00 +22°C° 0 mm 3 mps 760 mmHg 44%
    14:00 +22°C° 0 mm 3 mps 760 mmHg 42%
    15:00 +24°C° 0 mm 3 mps 760 mmHg 39%
    16:00 +22°C° 0 mm 3 mps 760 mmHg 44%
    17:00 +21°C° 0 mm 2 mps 759 mmHg 48%
    18:00 +20°C° 0 mm 2 mps 759 mmHg 53%
    19:00 +18°C° 0 mm 2 mps 759 mmHg 56%
    20:00 +18°C° 0 mm 1 mps 759 mmHg 59%
    21:00 +15°C° 0 mm 1 mps 759 mmHg 62%
    22:00 +15°C° 0 mm 1 mps 759 mmHg 64%
    23:00 +14°C° 0 mm 1 mps 759 mmHg 66%

    Tomorrow, 27 August, Tuesday

    Time Temperature Precipitation Wind Pressure Humidity
    00:00 +14°C° 0 mm 1 mps 758 mmHg 69%
    01:00 +14°C° 0 mm 1 mps 758 mmHg 69%
    02:00 +13°C° 0 mm 1 mps 758 mmHg 70%
    03:00 +13°C° 0 mm 1 mps 758 mmHg 71%
    04:00 +14°C° 0 mm 1 mps 757 mmHg 71%
    05:00 +14°C° 0 mm 1 mps 757 mmHg 70%
    06:00 +14°C° 0 mm 2 mps 756 mmHg 70%
    07:00 +16°C° 0 mm 3 mps 756 mmHg 66%
    08:00 +17°C° 0 mm 3 mps 755 mmHg 62%
    09:00 +19°C° 0 mm 4 mps 755 mmHg 58%
    10:00 +20°C° 0 mm 5 mps 755 mmHg 56%
    11:00 +21°C° 0 mm 5 mps 754 mmHg 54%
    12:00 +22°C° 0 mm 6 mps 753 mmHg 52%
    13:00 +21°C° 0.4 mm 6 mps 753 mmHg 59%
    14:00 +20°C° 0.4 mm 5 mps 752 mmHg 66%
    15:00 +19°C° 0.4 mm 4 mps 752 mmHg 73%
    16:00 +19°C° 0.4 mm 4 mps 751 mmHg 73%
    17:00 +19°C° 0.4 mm 4 mps 751 mmHg 74%
    18:00 +19°C° 0.4 mm 4 mps 751 mmHg 74%
    19:00 +18°C° 0 mm 4 mps 750 mmHg 79%
    20:00 +17°C° 0 mm 4 mps 750 mmHg 84%
    21:00 +14°C° 0 mm 3 mps 750 mmHg 89%
    22:00 +14°C° 0 mm 4 mps 750 mmHg 87%
    23:00 +14°C° 0 mm 4 mps 750 mmHg 86%

    Day after tomorrow, 28 August, Wednesday

    Time Temperature Precipitation Wind Pressure Humidity
    00:00 +14°C° 0 mm 5 mps 751 mmHg 85%
    01:00 +13°C° 0 mm 5 mps 751 mmHg 87%
    02:00 +12°C° 0 mm 5 mps 751 mmHg 89%
    03:00 +10°C° 0 mm 5 mps 751 mmHg 90%
    04:00 +10°C° 0 mm 5 mps 751 mmHg 89%
    05:00 +10°C° 0 mm 6 mps 751 mmHg 88%
    06:00 +10°C° 0 mm 6 mps 751 mmHg 87%
    07:00 +10°C° 0 mm 7 mps 751 mmHg 78%
    08:00 +10°C° 0 mm 8 mps 752 mmHg 70%
    09:00 +11°C° 0 mm 9 mps 752 mmHg 61%
    10:00 +11°C° 0 mm 9 mps 752 mmHg 59%
    11:00 +11°C° 0 mm 9 mps 752 mmHg 56%
    12:00 +11°C° 0 mm 9 mps 752 mmHg 54%
    13:00 +11°C° 0 mm 9 mps 753 mmHg 55%
    14:00 +11°C° 0 mm 8 mps 753 mmHg 56%
    15:00 +11°C° 0 mm 8 mps 753 mmHg 57%
    16:00 +11°C° 0 mm 8 mps 754 mmHg 61%
    17:00 +11°C° 0 mm 8 mps 754 mmHg 64%
    18:00 +10°C° 0 mm 8 mps 754 mmHg 67%
    19:00 +10°C° 0 mm 7 mps 754 mmHg 68%
    20:00 +9°C° 0 mm 6 mps 755 mmHg 69%
    21:00 +8°C° 0 mm 6 mps 755 mmHg 70%
    22:00 +7°C° 0 mm 6 mps 755 mmHg 71%
    23:00 +7°C° 0 mm 6 mps 755 mmHg 72%

    29 August, Thursday

    Time Temperature Precipitation Wind Pressure Humidity
    00:00 +7°C° 0 mm 6 mps 755 mmHg 72%
    01:00 +5°C° 0 mm 6 mps 756 mmHg 73%
    02:00 +5°C° 0 mm 6 mps 756 mmHg 73%
    03:00 +4°C° 0 mm 6 mps 756 mmHg 74%
    04:00 +4°C° 0 mm 6 mps 756 mmHg 74%
    05:00 +4°C° 0 mm 6 mps 756 mmHg 73%
    06:00 +4°C° 0 mm 7 mps 757 mmHg 72%
    07:00 +6°C° 0 mm 7 mps 757 mmHg 66%
    08:00 +9°C° 0 mm 7 mps 757 mmHg 60%
    09:00 +10°C° 0 mm 8 mps 757 mmHg 53%
    10:00 +12°C° 0 mm 7 mps 757 mmHg 50%
    11:00 +14°C° 0 mm 7 mps 757 mmHg 47%
    12:00 +15°C° 0 mm 7 mps 757 mmHg 44%
    13:00 +15°C° 0 mm 7 mps 757 mmHg 44%
    14:00 +16°C° 0 mm 7 mps 757 mmHg 43%
    15:00 +16°C° 0 mm 7 mps 756 mmHg 42%
    16:00 +15°C° 0 mm 6 mps 756 mmHg 47%
    17:00 +14°C° 0 mm 5 mps 757 mmHg 52%
    18:00 +13°C° 0 mm 4 mps 757 mmHg 57%
    19:00 +12°C° 0 mm 3 mps 757 mmHg 61%
    20:00 +10°C° 0 mm 3 mps 757 mmHg 65%
    21:00 +9°C° 0 mm 3 mps 757 mmHg 69%
    22:00 +8°C° 0 mm 3 mps 757 mmHg 71%
    23:00 +8°C° 0 mm 3 mps 757 mmHg 73%

    30 August, Friday

    Time Temperature Precipitation Wind Pressure Humidity
    00:00 +7°C° 0 mm 2 mps 757 mmHg 75%
    01:00 +7°C° 0 mm 2 mps 757 mmHg 76%
    02:00 +7°C° 0 mm 2 mps 756 mmHg 77%
    03:00 +6°C° 0 mm 2 mps 756 mmHg 77%
    04:00 +7°C° 0 mm 2 mps 756 mmHg 74%
    05:00 +8°C° 0 mm 2 mps 755 mmHg 72%
    06:00 +9°C° 0 mm 2 mps 755 mmHg 69%
    07:00 +10°C° 0.1 mm 3 mps 755 mmHg 69%
    08:00 +11°C° 0.1 mm 3 mps 754 mmHg 69%
    09:00 +12°C° 0.1 mm 3 mps 754 mmHg 68%
    10:00 +11°C° 1.4 mm 3 mps 754 mmHg 76%
    11:00 +12°C° 1.4 mm 2 mps 754 mmHg 84%
    12:00 +11°C° 1.4 mm 1 mps 754 mmHg 92%
    13:00 +10°C° 0 mm 3 mps 754 mmHg 90%
    14:00 +10°C° 0 mm 4 mps 754 mmHg 87%
    15:00 +9°C° 0 mm 6 mps 754 mmHg 84%
    16:00 +9°C° 0 mm 5 mps 755 mmHg 81%
    17:00 +10°C° 0 mm 4 mps 755 mmHg 78%
    18:00 +10°C° 0 mm 3 mps 756 mmHg 75%
    19:00 +9°C° 0 mm 3 mps 756 mmHg 78%
    20:00 +8°C° 0 mm 3 mps 756 mmHg 81%
    21:00 +7°C° 0 mm 3 mps 756 mmHg 85%
    22:00 +7°C° 0 mm 3 mps 756 mmHg 84%
    23:00 +5°C° 0 mm 3 mps 757 mmHg 83%

    31 August, Saturday

    Time Temperature Precipitation Wind Pressure Humidity
    00:00 +5°C° 0 mm 3 mps 757 mmHg 82%
    01:00 +5°C° 0 mm 3 mps 757 mmHg 84%
    02:00 +5°C° 0 mm 3 mps 757 mmHg 86%
    03:00 +4°C° 0 mm 3 mps 757 mmHg 89%
    04:00 +4°C° 0 mm 3 mps 757 mmHg 88%
    05:00 +5°C° 0 mm 3 mps 757 mmHg 88%
    06:00 +5°C° 0 mm 3 mps 757 mmHg 87%
    07:00 +8°C° 0 mm 3 mps 757 mmHg 79%
    08:00 +10°C° 0 mm 4 mps 757 mmHg 70%
    09:00 +12°C° 0 mm 4 mps 757 mmHg 62%
    10:00 +13°C° 0 mm 4 mps 757 mmHg 57%
    11:00 +14°C° 0 mm 4 mps 757 mmHg 52%
    12:00 +16°C° 0 mm 5 mps 756 mmHg 47%
    13:00 +16°C° 0 mm 5 mps 756 mmHg 47%
    14:00 +16°C° 0 mm 5 mps 756 mmHg 47%
    15:00 +16°C° 0 mm 5 mps 755 mmHg 47%
    16:00 +15°C° 0 mm 4 mps 755 mmHg 51%
    17:00 +14°C° 0 mm 3 mps 755 mmHg 56%
    18:00 +15°C° 0 mm 2 mps 755 mmHg 60%
    19:00 +13°C° 0 mm 2 mps 755 mmHg 64%
    20:00 +12°C° 0 mm 2 mps 756 mmHg 68%
    21:00 +9°C° 0 mm 2 mps 756 mmHg 72%
    22:00 +9°C° 0 mm 2 mps 756 mmHg 74%
    23:00 +9°C° 0 mm 1 mps 756 mmHg 76%
    Show more